Regional Weather Roundup
Issued by NWS

Home | Current Version | Previous Version | Text Only | Print | Product List | Glossary Off
Versions: 1 2 3 4 5 6 7 8 9 10 11 12 13 14 15 16 17 18 19 20 21 22 23 24 25 26 27 28 29 30 31 32 33 34 35 36 37 38 39 40 41 42 43 44 45 46 47 48 49 50

072
ASUS45 KSLC 302210
RWRUT

UTAH REGIONAL WEATHER ROUNDUP
NATIONAL WEATHER SERVICE SALT LAKE CITY UT
400 PM MDT SAT JUL 30 2016

UTZ001>011-023>025-302300-

NORTHERN UTAH

CITY           SKY/WX    TMP DP  RH WIND       PRES   REMARKS
BRIGHAM CITY     N/A     93  32  11 CALM      29.94F
HILL AFB       PTSUNNY   90  44  19 N3        30.00S
LOGAN          PTSUNNY   92  43  18 MISG      29.96F
OGDEN          PTSUNNY   92  42  17 NW6       29.96S
PROVO AIRPORT  PTSUNNY   91  46  21 NW13      29.93F
SALT LAKE CITY CLOUDY    93  44  18 E12       29.93F
VERNAL         SUNNY     96  32  10 SW8       29.97F HX  90
WENDOVER       MOSUNNY   93  43  17 SE14      29.92F
HEBER CITY     CLOUDY    90  37  15 W8        30.02S
WEST JORDAN    SUNNY     84  54  34 CALM      29.98F

$$

UTZ012>022-026-027-302300-

SOUTHERN/CENTRAL UTAH

CITY           SKY/WX    TMP DP  RH WIND       PRES   REMARKS
BLANDING       MOSUNNY   91  39  15 N17G23    30.13F
BRYCE CANYON   CLOUDY    70  48  45 W5        30.26F
CEDAR CITY     SUNNY     92  48  22 SW9G21    30.05F
DELTA          SUNNY     97  36  11 S7        29.94F HX  92
MILFORD        LGT RAIN  82  55  39 S6        29.97R
MOAB/CYNLANDS  SUNNY     98  39  13 SE10      29.92F HX  93
PRICE          SUNNY     91  36  14 VRB5      30.06F
ST GEORGE      CLOUDY   100  54  20 W16       29.86F HX  98

$$

REGIONAL REPORTS     COLORADO/ARIZONA

CITY           SKY/WX    TMP DP  RH WIND       PRES   REMARKS
CRAIG, CO      CLOUDY    92  25   9 VRB5G21   30.06F
GRAND JUNCTION MOSUNNY   93  37  14 MISG      29.97F
RIFLE          CLOUDY    95  33  11 W16       30.01F HX  90
MONTROSE       CLOUDY    89  39  17 NW12      30.10F
CORTEZ         SUNNY     92  43  18 SW7       30.05F
PAGE, AZ       PTSUNNY   90  47  22 W9        29.95S
GRAND CANYON   MOSUNNY   88  40  18 W8G16     30.19F
KINGMAN        PTSUNNY   92  56  29 SW17G24   29.98F HX  90
FLAGSTAFF      PTSUNNY   79  48  33 E8        30.21F

$$

REGIONAL REPORTS    NEVADA/IDAHO/WYOMING

CITY           SKY/WX    TMP DP  RH WIND       PRES   REMARKS
LAS VEGAS, NV  PTSUNNY  107  47  13 E8        29.74F HAZE    HX 103
ELY            PTSUNNY   85  39  19 W20G31    30.12F
ELKO           PTSUNNY   82  47  29 S10       29.97S THUNDER
POCATELLO, ID  SUNNY     97  42  15 W17       29.91F HX  93
BURLEY         MOSUNNY   93  47  20 VRB3      29.86F
EVANSTON, WY   CLOUDY    79  40  24 N15       30.17F
ROCK SPRINGS   CLOUDY    80  37  21 W22G36    30.15R
KEMMERER         N/A     81  36  19 NW15G21   30.20F

$$




USA.gov is the U.S. government's official web portal to all federal, state and local government web resources and services.